Location: B?dimalle
(17.1788°N, 80.5377°E)
Time: 14:33:15
(UTC+00:00)

Altair - Visible Passes

Search period start: 06 December 2025 00:00
Search period end: 16 December 2025 00:00
Orbit: 1501 x 1682 km, 47.2° (Epoch: 05 December)

Date Brightness Start Highest point End Pass type
(mag) Time Alt. Az. Time Alt. Az. Time Alt. Az.
06 Dec 9.2 00:34:20 10° N 00:40:00 17° NNE 00:45:34 10° ENE visible
06 Dec 9.5 15:36:43 10° S 15:37:56 14° S 15:37:56 14° S visible
07 Dec 9.2 00:09:21 10° N 00:14:32 16° NNE 00:19:38 10° ENE visible
07 Dec 9.3 15:11:55 10° S 15:14:18 17° S 15:14:18 17° S visible
07 Dec 9.3 23:44:24 10° N 23:49:04 14° NNE 23:53:39 10° NE visible
08 Dec 9.1 14:47:10 10° S 14:50:41 19° SSE 14:50:41 19° SSE visible
08 Dec 9.3 23:19:30 10° N 23:23:34 13° NNE 23:27:35 10° NE visible
09 Dec 9.0 14:22:32 10° S 14:27:09 19° SE 14:27:09 19° SE visible
09 Dec 9.5 16:23:38 10° SW 16:25:11 16° SW 16:25:11 16° SW visible
09 Dec 9.3 22:54:38 10° N 22:58:03 12° NNE 23:01:26 10° NE visible
10 Dec 8.9 13:58:02 10° SSE 14:03:39 18° SE 14:03:39 18° SE visible
10 Dec 9.1 15:58:22 10° SW 16:01:41 25° SW 16:01:41 25° SW visible
10 Dec 9.4 22:29:53 10° N 22:32:30 11° NNE 22:35:07 10° NE visible
11 Dec 8.5 00:31:09 10° NNW 00:39:44 40° NE 00:48:08 10° ESE visible
11 Dec 9.0 13:33:42 10° SSE 13:39:01 15° SE 13:40:11 15° ESE visible
11 Dec 8.6 15:33:07 10° SW 15:38:14 35° SSW 15:38:14 35° SSW visible
11 Dec 9.4 22:06:02 10° NNE 22:06:57 10° NNE 22:08:31 10° NNE visible
12 Dec 8.5 00:06:02 10° NNW 00:14:26 36° NE 00:22:38 10° ESE visible
12 Dec 9.1 13:09:40 10° SSE 13:13:46 13° SE 13:16:46 11° ESE visible
12 Dec 8.1 15:07:56 10° SSW 15:14:49 48° SSW 15:14:49 48° SSW visible
12 Dec 8.6 23:40:55 10° NNW 23:49:07 33° NE 23:57:05 10° E visible
13 Dec 9.2 12:46:26 10° SE 12:48:31 11° SE 12:50:36 10° ESE visible
13 Dec 7.7 14:42:46 10° SSW 14:51:26 60° SSE 14:51:26 60° SSE visible
13 Dec 9.8 16:49:01 10° W 16:49:29 11° W 16:49:29 11° W visible
13 Dec 8.7 23:16:46 13° NNW 23:23:46 30° NE 23:31:31 10° E visible
14 Dec 7.6 14:17:39 10° SSW 14:27:33 58° SE 14:28:04 58° ESE visible
14 Dec 9.4 16:23:23 10° WSW 16:26:07 19° W 16:26:07 19° W visible
14 Dec 8.8 22:53:10 17° N 22:58:25 27° NE 23:05:54 10° E visible
15 Dec 7.8 13:52:34 10° SSW 14:02:19 53° SE 14:04:43 45° E visible
15 Dec 8.9 15:57:49 10° WSW 16:02:46 29° W 16:02:46 29° W visible
15 Dec 8.8 22:29:37 20° N 22:33:02 25° NE 22:40:15 10° E visible
